Regional Weather Roundup
Issued by NWS

Home | Current Version | Previous Version | Graphics & Text | Print | Product List | Glossary Off
Versions: 1 2 3 4 5 6 7 8 9 10 11 12 13 14 15 16 17 18 19 20 21 22 23 24 25 26 27 28 29 30 31 32 33 34 35 36 37 38 39 40 41 42 43 44 45 46 47 48 49 50

000
ASUS45 KCYS 270710
RWRWY

WYOMING REGIONAL WEATHER ROUNDUP
NATIONAL WEATHER SERVICE CHEYENNE WY
100 AM MDT SAT MAY 27 2017

NOTE:  "FAIR" INDICATES FEW OR NO CLOUDS BELOW 12,000 FEET
WITH NO SIGNIFICANT WEATHER AND/OR OBSTRUCTIONS TO VISIBILITY.

WYZ001-270800-
YELLOWSTONE NATIONAL PARK

CITY           SKY/WX    TMP DP  RH WIND       PRES   REMARKS
LK YELLOWSTONE   N/A     29  29 100 CALM      30.15S
W YELLOWSTONE  NOT AVBL

$$
WYZ002>013-054>058-071-098>099-270800-
NORTHERN WYOMING

CITY           SKY/WX    TMP DP  RH WIND       PRES   REMARKS
JACKSON        FAIR      34  34 100 CALM      30.13R
CODY           FAIR      41  36  82 S3        30.07S
GREYBULL       FAIR      45  40  82 SE3       30.03S
WORLAND        FAIR      41  41 100 SW5       30.04R
SHERIDAN       FAIR      43  39  86 CALM      30.01F
BUFFALO        CLOUDY    47  38  71 CALM      30.04S
GILLETTE       CLOUDY    47  44  90 SW7       30.01F
HULETT         FAIR      46  43  87 W5        30.01R
NEWCASTLE      CLOUDY    45  45 100 NW10      30.02S

$$
WYZ014>020-022>026-101>103-270800-
CENTRAL WYOMING

CITY           SKY/WX    TMP DP  RH WIND       PRES   REMARKS
BIG PINEY      FAIR      35  31  85 N7        30.10R WCI  29
PINEDALE       FAIR      32  32 100 NW6       30.09R WCI  26
DUBOIS         CLOUDY    36  34  93 CALM      30.10S
LANDER         CLOUDY    42  39  89 SW6       30.07S
RIVERTON       CLOUDY    44  38  79 N5        30.07S
CASPER         CLOUDY    43  41  93 N3        30.06R
DOUGLAS        CLOUDY    45  42  89 NW5       30.05R

$$
WYZ021-027>030-104>119-270800-
SOUTHERN WYOMING

CITY           SKY/WX    TMP DP  RH WIND       PRES   REMARKS
EVANSTON       FAIR      35  31  85 W5        30.11R WCI  31
KEMMERER         N/A     37  32  81 CALM      30.10S
FORT BRIDGER   FAIR      37  30  75 NW5       30.14R WCI  34
ROCK SPRINGS   FAIR      37  35  92 NE6       30.08S WCI  32
DIXON            N/A     43  41  92 SE9       30.10F
RAWLINS        CLOUDY    42  37  82 CALM      30.06R
SARATOGA       CLOUDY    41  36  81 S17G23    30.08S
LARAMIE        CLOUDY    38  36  92 VRB6      30.08R WCI  33
CHEYENNE       CLOUDY    42  41  96 W6        30.05R FOG
TORRINGTON     MOCLDY    46  46 100 W6        29.98R
PINE BLUFFS    CLOUDY    45  45 100 NW3       30.02R

$$



USA.gov is the U.S. government's official web portal to all federal, state and local government web resources and services.